Regional Weather Roundup
Issued by NWS

Home | Current Version | Previous Version | Graphics & Text | Print | Product List | Glossary Off
Versions: 1 2 3 4 5 6 7 8 9 10 11 12 13 14 15 16 17 18 19 20 21 22 23 24 25 26 27 28 29 30 31 32 33 34 35 36 37 38 39 40 41 42 43 44 45 46 47 48 49 50

000
ASUS45 KCYS 260310
RWRWY

WYOMING REGIONAL WEATHER ROUNDUP
NATIONAL WEATHER SERVICE CHEYENNE WY
900 PM MDT MON MAY 25 2015

NOTE:  "FAIR" INDICATES FEW OR NO CLOUDS BELOW 12,000 FEET
WITH NO SIGNIFICANT WEATHER AND/OR OBSTRUCTIONS TO VISIBILITY.

WYZ001-260400-
YELLOWSTONE NATIONAL PARK

CITY           SKY/WX    TMP DP  RH WIND       PRES   REMARKS
LK YELLOWSTONE   N/A     43  38  82 CALM      30.06R
W YELLOWSTONE  NOT AVBL

$$
WYZ002>013-054>058-071-098>099-260400-
NORTHERN WYOMING

CITY           SKY/WX    TMP DP  RH WIND       PRES   REMARKS
JACKSON        FAIR      52  37  58 SW8G20    29.99R
CODY           FAIR      55  46  71 CALM      29.93S
GREYBULL       MOCLDY    62  43  49 S6        29.89R
WORLAND        FAIR      54  47  77 S8        29.91S
SHERIDAN       FAIR      54  48  80 S5        29.93F
BUFFALO        FAIR      51  46  83 CALM      29.97S
GILLETTE       CLOUDY    53  49  86 NE7       29.94S
HULETT         CLOUDY    52  50  93 CALM      29.96S
NEWCASTLE      CLOUDY    52  50  93 CALM      29.94R

$$
WYZ014>020-022>026-101>103-260400-
CENTRAL WYOMING

CITY           SKY/WX    TMP DP  RH WIND       PRES   REMARKS
BIG PINEY      CLOUDY    49  39  68 E5        30.04R
PINEDALE       FAIR      45  37  76 S3        30.05S
DUBOIS         FAIR      45  39  81 SE5       30.03R
LANDER         FAIR      52  44  74 SW5       29.97R
RIVERTON       FAIR      55  42  61 CALM      29.98R
CASPER         MOCLDY    50  44  80 NE3       29.98R
DOUGLAS        CLOUDY    53  48  83 N3        29.97R

$$
WYZ021-027>030-104>119-260400-
SOUTHERN WYOMING

CITY           SKY/WX    TMP DP  RH WIND       PRES   REMARKS
EVANSTON       FAIR      45  42  89 SE7       30.06F
KEMMERER       FAIR      43  37  81 W6        30.07S
FORT BRIDGER   MOCLDY    46  45  93 W8        30.09S
ROCK SPRINGS   FAIR      47  42  83 NW3       30.05R
DIXON          FAIR      50  43  78 N6        30.08R
RAWLINS        CLOUDY    47  42  83 S3        30.05S
SARATOGA       MOCLDY    45  41  87 MISG      30.07S
LARAMIE        MOCLDY    43  40  89 NW5       30.04R
CHEYENNE       FAIR      49  41  74 NW6       29.99R
TORRINGTON     MOCLDY    52  50  93 W6        29.91R
PINE BLUFFS    FAIR      46  45  93 W6        29.96R

$$


USA.gov is the U.S. government's official web portal to all federal, state and local government web resources and services.